Tracking 18673 objects as of 26-June-2017
HD Live streaming from Space Station
objects crossing your sky now

COSMOS 2251 DEB

Track COSMOS 2251 DEB now!
10-day predictions


NORAD ID: 35451
Int'l Code: 1993-036AKV
Perigee: 568.2 km
Apogee: 717.8 km
Inclination: 73.9 °
Period: 97.4 minutes
Semi major axis: 7013 km
RCS: 0.0039 m2 (small)
Launch date: June 16, 1993
Source: Commonwealth of Independent States (former USSR) (CIS)
Launch site: PLESETSK MISSILE AND SPACE COMPLEX (PKMTR)

Note: This is SATELLITE DEBRIS
Your satellite tracking list
Your tracking list is empty





NASA's NSSDC Master Catalog

Two Line Element Set (TLE):
1 35451U 93036AKV 17176.42791395 +.00000562 +00000-0 +75846-4 0  9998
2 35451 073.9446 178.0961 0106656 078.6486 282.6648 14.77942759439881
Source of the keplerian elements: AFSPC